User: anonymous   Login
Location: Vallejo Observatory
(38.1221°N, 122.2109°W)
Time: 11:20:20
(UTC-07:00)
Language:

MOS 1 Rocket - Orbit

View from above orbital plane
View from above orbital plane
View from above satellite
View from above satellite

Ground track
Ground track

The orbit data is extracted from the following two-line orbital elements,

1 17528U 87018B   17172.90660676 +.00000051 +00000-0 +21089-4 0  9995
2 17528 097.4521 129.4181 0150443 282.8097 137.6138 14.50778888579941
Epoch (UTC): 21 June 2017 21:45:30
Eccentricity: 0.0150443
inclination: 97.4521°
perigee height: 616 km
apogee height: 830 km
right ascension of ascending node: 129.4181°
argument of perigee: 282.8097°
revolutions per day: 14.50778888
mean anomaly at epoch: 137.6138°
orbit number at epoch: 57994

The dashed part of the orbit path shows where the satellite is in the earth's shadow,  

DLR